[[{"header":{"parameterUnit":"m.s-1","parameterCategory":1,"la1":30.2991,"la2":30.254,"lo1":-89.0895,"lo2":-89.0444,"dy":0.0017,"dx":0.0017,"nx":28,"ny":28,"refTime":"2023-04-25T21:00:00:Z","depth":0,"parameterNumber":2,"parameterNumberName":"U-component_of_WINDS"},"data":[0,0,0,0,0,0,0,0,0,0,0,0,0,0,0,0,0,0,0,0,0,0,0,0,0,0,0,0,0,0,0,0,0,0,0,0,0,0,0,0,0,0,0,0,0,0,0,0,0,0,0,0,0,0,0,0,0,0,-2.29,-2.2902,0,-2.311,-2.3112,-2.3115,-2.3206,-2.3205,-2.3205,-2.3205,-2.3418,-2.3424,-2.343,0,0,0,0,0,0,0,0,0,0,0,0,0,-2.2576,-2.2581,-2.29,-2.2902,-2.2905,-2.311,-2.3113,-2.3115,-2.3206,-2.3205,-2.3205,-2.3204,-2.3416,-2.3423,-2.343,0,0,0,0,0,0,0,0,0,0,0,0,0,-2.2744,-2.2583,-2.2899,-2.2975,-2.2984,-2.3109,-2.3113,-2.3116,-2.3206,-2.3205,-2.3205,-2.3204,-2.3414,-2.3423,-2.3431,-2.3497,0,0,-2.3459,-2.3463,0,0,0,0,0,0,0,0,-2.2734,-2.2756,-2.2961,-2.297,-2.298,-2.3131,-2.3077,-2.3244,-2.3206,-2.3121,-2.3205,-2.3204,-2.3323,-2.3339,-2.338,-2.3507,-2.3516,-2.346,-2.3465,-2.3469,-2.3472,0,0,0,0,0,0,0,-2.2723,-2.2747,-2.2983,-2.2964,-2.2975,-2.2998,-2.3021,-2.3109,-2.3222,-2.3129,-2.3136,-2.3159,-2.3328,-2.3371,-2.3386,-2.3519,-2.346,-2.3468,-2.3473,-2.3477,-2.3712,-2.3713,0,0,0,0,0,0,-2.2699,-2.2737,-2.2976,-2.2989,-2.2853,-2.3004,-2.303,-2.3083,-2.3222,-2.3242,-2.316,-2.3163,-2.3356,-2.3375,-2.3393,-2.348,-2.3469,-2.3477,-2.3483,-2.3711,-2.3712,-2.3713,0,0,0,0,0,0,-2.2691,-2.2719,-2.2968,-2.2865,-2.2899,-2.301,-2.3069,-2.3087,-2.3131,-2.3245,-2.3266,-2.3183,-2.3356,-2.3381,-2.3471,-2.3489,-2.3482,-2.349,-2.371,-2.3711,-2.3712,-2.3653,0,0,0,0,0,0,-2.2682,-2.2716,-2.2742,-2.2865,-2.2904,-2.3042,-2.307,-2.3092,-2.3146,-2.3152,-2.3272,-2.3292,-2.3358,-2.3457,-2.348,-2.3501,-2.3497,-2.3709,-2.371,-2.3712,-2.3654,-2.3652,-2.365,0,0,0,0,0,-2.267,-2.2717,-2.2743,-2.2772,-2.2939,-2.3043,-2.3065,-2.314,-2.3147,-2.3174,-2.3248,-2.3288,-2.3483,-2.3465,-2.3492,-2.3516,-2.3708,-2.371,-2.3712,-2.3654,-2.3652,-2.365,0,0,0,0,0,0,-2.2593,-2.2734,-2.2765,-2.2853,-2.2935,-2.3058,-2.3095,-2.3135,-2.3217,-2.3219,-2.3309,-2.3335,-2.3418,-2.3476,-2.3454,-2.3587,-2.3599,-2.3606,-2.3546,-2.3545,-2.3543,-2.3527,-2.3504,0,0,0,0,0,-2.2586,-2.2659,-2.2778,-2.2844,-2.2884,-2.2982,-2.303,-2.3081,-2.317,-2.3205,-2.3285,-2.3369,-2.3449,-2.35,-2.3581,-2.3662,-2.369,-2.3692,-2.369,-2.3688,-2.3693,-2.3741,-2.3744,-2.3719,-2.3719,-2.3719,0,0,-2.2573,-2.2659,-2.2699,-2.2831,-2.2901,-2.2974,-2.3011,-2.3086,-2.3142,-2.3216,-2.3306,-2.3368,-2.3468,-2.3554,-2.3596,-2.3605,-2.3706,-2.3691,-2.3688,-2.3695,-2.3744,-2.3746,-2.3748,-2.372,-2.372,-2.372,0,0,-2.2586,-2.2659,-2.2722,-2.2791,-2.2896,-2.2961,-2.2976,-2.3093,-2.3137,-2.3229,-2.3287,-2.3353,-2.349,-2.3559,-2.3611,-2.3651,-2.369,-2.3674,-2.3665,-2.3711,-2.3713,-2.3715,-2.3729,-2.3733,-2.3679,-2.3679,-2.3679,0,-2.2556,-2.2669,-2.2749,-2.2822,-2.2878,-2.295,-2.3014,-2.3077,-2.3203,-2.324,-2.3248,-2.3422,-2.3494,-2.3597,-2.3607,-2.3647,-2.3667,-2.3661,-2.3706,-2.3709,-2.3713,-2.3727,-2.3732,-2.3676,-2.3677,-2.3677,-2.3677,0,-2.2627,-2.2705,-2.2743,-2.2863,-2.2924,-2.2992,-2.3082,-2.3134,-2.3179,-2.3243,-2.3336,-2.3425,-2.3525,-2.3553,-2.3599,-2.3664,-2.3666,-2.3689,-2.3703,-2.3711,-2.3726,-2.3732,-2.3673,-2.3674,-2.3674,-2.3675,0,0,-2.2598,-2.2761,-2.2774,-2.283,-2.2951,-2.3012,-2.3083,-2.3182,-2.3224,-2.3308,-2.3371,-2.3485,-2.3507,-2.3567,-2.3621,-2.366,-2.3686,-2.3679,-2.3683,-2.3678,-2.3764,-2.3745,-2.3751,-2.3714,-2.3715,-2.3716,-2.3755,0,-2.2628,-2.2759,-2.2833,-2.2934,-2.3006,-2.3075,-2.3138,-2.3218,-2.328,-2.335,-2.3418,-2.3498,-2.3521,-2.3558,-2.3601,-2.3674,-2.3705,-2.3672,-2.3772,-2.3775,-2.3745,-2.3759,-2.374,-2.3773,-2.3762,-2.3763,-2.3764,0,-2.268,-2.2764,-2.2871,-2.2985,-2.3018,-2.3072,-2.3168,-2.3235,-2.3328,-2.337,-2.3437,-2.349,-2.3568,-2.3576,-2.3684,-2.3661,-2.3706,-2.3748,-2.3751,-2.3763,-2.3769,-2.3771,-2.3785,-2.379,-2.3774,-2.3773,-2.3772,0,-2.2648,-2.2787,-2.287,-2.2915,-2.3049,-2.3086,-2.3144,-2.3236,-2.3291,-2.3374,-2.3411,-2.3502,-2.3552,-2.3621,-2.3698,-2.3697,-2.3799,-2.3813,-2.3836,-2.3834,-2.3855,-2.3852,-2.3876,-2.3883,-2.3883,-2.3883,-2.3883,0,-2.2674,-2.2737,-2.2857,-2.2908,-2.2981,-2.3065,-2.3135,-2.3198,-2.328,-2.3344,-2.3409,-2.3468,-2.3566,-2.3637,-2.3697,-2.3778,-2.38,-2.3836,-2.3852,-2.3831,-2.3826,-2.3862,-2.3861,-2.3885,-2.3884,-2.3884,-2.3884,0,-2.265,-2.2733,-2.2828,-2.2947,-2.2979,-2.3027,-2.3129,-2.3181,-2.3246,-2.3326,-2.335,-2.3452,-2.3539,-2.3622,-2.3738,-2.3779,-2.386,-2.388,-2.3828,-2.3837,-2.3855,-2.3852,-2.3903,-2.3913,-2.3913,-2.3913,-2.3913,0,-2.2661,-2.2712,-2.2836,-2.2884,-2.294,-2.3016,-2.3072,-2.3157,-2.3212,-2.3322,-2.3361,-2.3453,-2.3531,-2.3666,-2.375,-2.384,-2.3863,-2.3874,-2.3877,-2.3854,-2.3863,-2.3859,-2.3865,-2.3872,-2.3871,-2.3871,-2.3871,0,-2.2672,-2.2711,-2.2789,-2.2881,-2.2946,-2.3022,-2.3101,-2.3137,-2.3237,-2.3296,-2.3386,-2.3446,-2.3565,-2.3655,-2.3755,-2.3814,-2.3859,-2.3869,-2.388,-2.3859,-2.3827,-2.3844,-2.3823,-2.3868,-2.3868,-2.3868,-2.3869,-2.3869,-2.2667,-2.2715,-2.281,-2.2894,-2.2963,-2.3035,-2.309,-2.3161,-2.3238,-2.3341,-2.3387,-2.3478,-2.357,-2.3708,-2.3767,-2.3839,-2.385,-2.3864,-2.3868,-2.387,-2.3866,-2.3815,-2.3857,-2.3857,-2.3858,-2.3858,-2.3858,0,-2.2681,-2.2745,-2.2822,-2.2931,-2.2997,-2.3034,-2.3124,-2.3177,-2.3256,-2.3338,-2.3414,-2.3517,-2.3605,-2.3696,-2.3789,-2.383,-2.3853,-2.3851,-2.3849,-2.3862,-2.3851,-2.3833,-2.3831,-2.3831,-2.3831,-2.3831,-2.3831,-2.3831,-2.2696,-2.2779,-2.2829,-2.2946,-2.3011,-2.31,-2.3148,-2.3215,-2.3282,-2.3394,-2.3467,-2.3526,-2.3613,-2.3713,-2.3795,-2.382,-2.3851,-2.3844,-2.3874,-2.3861,-2.3863,-2.3864,-2.3848,-2.385,-2.385,-2.388,-2.388,-2.388]},{"header":{"parameterUnit":"m.s-1","parameterCategory":1,"la1":30.2991,"la2":30.254,"lo1":-89.0895,"lo2":-89.0444,"dy":0.0017,"dx":0.0017,"nx":28,"ny":28,"refTime":"2023-04-25T21:00:00:Z","depth":0,"parameterNumber":3,"parameterNumberName":"V-component_of_WINDS"},"data":[0,0,0,0,0,0,0,0,0,0,0,0,0,0,0,0,0,0,0,0,0,0,0,0,0,0,0,0,0,0,0,0,0,0,0,0,0,0,0,0,0,0,0,0,0,0,0,0,0,0,0,0,0,0,0,0,0,0,5.2436,5.2436,0,5.2475,5.2476,5.2476,5.2436,5.2434,5.2433,5.2431,5.2467,5.2469,5.2471,0,0,0,0,0,0,0,0,0,0,0,0,0,5.2321,5.2323,5.2436,5.2436,5.2437,5.2475,5.2476,5.2476,5.2436,5.2434,5.2432,5.2431,5.2466,5.2469,5.2472,0,0,0,0,0,0,0,0,0,0,0,0,0,5.2366,5.2324,5.2436,5.2421,5.2421,5.2475,5.2476,5.2477,5.2437,5.2434,5.2432,5.243,5.2465,5.2469,5.2472,5.2541,0,0,5.2483,5.2485,0,0,0,0,0,0,0,0,5.2364,5.2371,5.2423,5.2422,5.2422,5.2448,5.2448,5.2498,5.2437,5.243,5.2431,5.2429,5.2462,5.2466,5.2478,5.2543,5.2544,5.2483,5.2486,5.2487,5.2488,0,0,0,0,0,0,0,5.2361,5.2369,5.2451,5.2424,5.2423,5.2412,5.2416,5.2458,5.2459,5.2431,5.2428,5.2433,5.2461,5.2475,5.2479,5.2545,5.2483,5.2487,5.2489,5.249,5.2669,5.2672,0,0,0,0,0,0,5.236,5.2366,5.245,5.2452,5.2387,5.2416,5.242,5.2442,5.2458,5.2459,5.2435,5.2431,5.247,5.2475,5.248,5.2563,5.2487,5.249,5.2493,5.2667,5.267,5.2673,0,0,0,0,0,0,5.2357,5.2368,5.2448,5.2409,5.2418,5.242,5.2445,5.2444,5.2458,5.2462,5.2461,5.245,5.2468,5.2475,5.2527,5.2564,5.2492,5.2495,5.2664,5.2668,5.2671,5.2729,0,0,0,0,0,0,5.2354,5.2367,5.2394,5.241,5.242,5.2496,5.2447,5.2447,5.2465,5.246,5.2475,5.2475,5.2467,5.2522,5.2531,5.2567,5.2498,5.266,5.2665,5.267,5.2724,5.2734,5.2744,0,0,0,0,0,5.235,5.2407,5.2396,5.2406,5.2455,5.2498,5.2504,5.2495,5.2468,5.2495,5.2497,5.2475,5.2558,5.2527,5.2537,5.2575,5.2658,5.2664,5.267,5.2719,5.2732,5.2743,0,0,0,0,0,0,5.2393,5.2409,5.2396,5.246,5.2479,5.2491,5.2525,5.2509,5.2534,5.2528,5.2514,5.2518,5.2574,5.2579,5.2545,5.2644,5.2603,5.2611,5.2638,5.265,5.266,5.2658,5.2501,0,0,0,0,0,5.2411,5.2447,5.2457,5.2513,5.2523,5.2523,5.2541,5.2533,5.2551,5.2557,5.2564,5.2581,5.2611,5.2631,5.2658,5.2724,5.2727,5.2756,5.2765,5.2773,5.2781,5.2817,5.283,5.2692,5.2692,5.2692,0,0,5.2446,5.2459,5.2482,5.2522,5.2535,5.2571,5.2529,5.2569,5.2595,5.2563,5.2613,5.2619,5.2636,5.2696,5.2723,5.2703,5.282,5.2781,5.2787,5.279,5.2825,5.2838,5.2849,5.2696,5.2695,5.2694,0,0,5.253,5.2543,5.2592,5.2606,5.2628,5.2628,5.2639,5.2655,5.2658,5.2709,5.2686,5.2717,5.2769,5.2783,5.2797,5.2888,5.2868,5.2897,5.2948,5.2984,5.2995,5.3004,5.3038,5.305,5.2904,5.2904,5.2904,0,5.257,5.2626,5.2618,5.266,5.2679,5.2653,5.2702,5.2716,5.2745,5.2757,5.2735,5.2801,5.2811,5.2874,5.2897,5.2909,5.2921,5.2895,5.2994,5.3004,5.3013,5.3044,5.3057,5.2907,5.2907,5.2907,5.2906,0,5.2676,5.2715,5.2751,5.2782,5.2804,5.285,5.2847,5.287,5.2861,5.2863,5.2915,5.2926,5.2957,5.2971,5.2961,5.3034,5.3021,5.2997,5.2956,5.3029,5.3059,5.3071,5.2912,5.2911,5.291,5.2909,0,0,5.2786,5.2815,5.2828,5.2843,5.2866,5.2895,5.2939,5.2971,5.2991,5.3012,5.3049,5.3094,5.3073,5.3089,5.308,5.3111,5.3184,5.3083,5.3083,5.3102,5.3266,5.3285,5.3299,5.3171,5.3173,5.3175,5.3265,0,5.2871,5.295,5.2945,5.3019,5.3055,5.3032,5.3071,5.3088,5.3092,5.3121,5.3124,5.3157,5.3126,5.3135,5.3165,5.3169,5.3217,5.3162,5.3204,5.3206,5.3202,5.3314,5.3334,5.3418,5.3276,5.3278,5.328,0,5.2981,5.3009,5.3087,5.3107,5.3121,5.3156,5.3186,5.3215,5.3235,5.3235,5.3254,5.324,5.3284,5.3243,5.3303,5.3266,5.3282,5.3287,5.329,5.3294,5.3248,5.3322,5.3445,5.3458,5.3297,5.3296,5.3295,0,5.3055,5.3112,5.3167,5.318,5.3203,5.3229,5.3239,5.3257,5.3277,5.3302,5.3315,5.3344,5.3361,5.3383,5.3378,5.3348,5.3439,5.3397,5.344,5.3441,5.3461,5.346,5.3589,5.3471,5.347,5.347,5.347,0,5.3151,5.32,5.3201,5.3235,5.3289,5.3282,5.3335,5.3343,5.3359,5.3393,5.3374,5.3406,5.3396,5.3427,5.3423,5.3474,5.3481,5.3482,5.348,5.3484,5.3484,5.3495,5.349,5.3473,5.3473,5.3472,5.3471,0,5.3244,5.3246,5.3305,5.3323,5.3329,5.3368,5.3383,5.3415,5.3417,5.3461,5.347,5.3473,5.3509,5.3506,5.3546,5.3543,5.3606,5.3597,5.3601,5.3599,5.3643,5.364,5.3785,5.3804,5.3672,5.3673,5.3674,0,5.3305,5.3343,5.3367,5.339,5.3403,5.3439,5.346,5.3455,5.3477,5.3504,5.3532,5.3567,5.3595,5.3653,5.3658,5.3688,5.368,5.3729,5.3685,5.3688,5.3682,5.3681,5.3685,5.3738,5.3739,5.3741,5.3742,0,5.3415,5.3415,5.3448,5.3482,5.3509,5.3534,5.3558,5.3577,5.3573,5.36,5.3638,5.366,5.3702,5.3737,5.3766,5.3775,5.3758,5.3756,5.3768,5.3773,5.3774,5.3775,5.3626,5.3752,5.3751,5.3751,5.375,5.375,5.3494,5.3528,5.355,5.3588,5.3606,5.3629,5.366,5.3667,5.37,5.3735,5.3729,5.3772,5.3791,5.383,5.3842,5.3875,5.3857,5.3874,5.3878,5.3883,5.3889,5.3768,5.388,5.3879,5.3879,5.3879,5.3878,0,5.3604,5.3618,5.3653,5.3688,5.3718,5.3701,5.3727,5.3752,5.3791,5.3811,5.384,5.3884,5.3918,5.3927,5.3959,5.3984,5.3977,5.3993,5.3991,5.3994,5.3902,5.3889,5.3998,5.3998,5.3998,5.3998,5.3998,5.3998,5.3665,5.3721,5.3724,5.3789,5.3801,5.3846,5.3862,5.3883,5.3899,5.3951,5.398,5.3986,5.4001,5.4035,5.4066,5.4067,5.4081,5.41,5.4098,5.4012,5.4,5.3989,5.3977,5.4103,5.4103,5.4188,5.4189,5.4189]}]]